[[{"header":{"parameterUnit":"m.s-1","parameterCategory":1,"la1":30.2991,"la2":30.254,"lo1":-89.0895,"lo2":-89.0444,"dy":0.0017,"dx":0.0017,"nx":28,"ny":28,"refTime":"2024-04-07T21:00:00:Z","depth":0,"parameterNumber":2,"parameterNumberName":"U-component_of_WINDS"},"data":[0,0,0,0,0,0,0,0,0,0,0,0,0,0,0,0,0,0,0,0,0,0,0,0,0,0,0,0,0,0,0,0,0,0,0,0,0,0,0,0,0,0,0,0,0,0,0,0,0,0,0,0,0,0,0,0,0,0,-2.5385,-2.5387,0,-2.5579,-2.5581,-2.5583,-2.5651,-2.565,-2.5649,-2.5649,-2.5848,-2.5854,-2.586,0,0,0,0,0,0,0,0,0,0,0,0,0,-2.5074,-2.5079,-2.5385,-2.5387,-2.539,-2.5578,-2.5581,-2.5584,-2.5651,-2.565,-2.5649,-2.5648,-2.5846,-2.5853,-2.586,0,0,0,0,0,0,0,0,0,0,0,0,0,-2.5232,-2.5081,-2.5384,-2.5446,-2.5453,-2.5578,-2.5581,-2.5585,-2.5651,-2.565,-2.5649,-2.5648,-2.5844,-2.5852,-2.5861,-2.5939,0,0,-2.5889,-2.5893,0,0,0,0,0,0,0,0,-2.5223,-2.5244,-2.5434,-2.5442,-2.545,-2.5589,-2.5545,-2.5704,-2.5651,-2.5576,-2.5649,-2.5647,-2.5763,-2.5779,-2.5817,-2.5949,-2.5957,-2.589,-2.5895,-2.5899,-2.5902,0,0,0,0,0,0,0,-2.5212,-2.5236,-2.5462,-2.5437,-2.5447,-2.5464,-2.5486,-2.5575,-2.5673,-2.5582,-2.5588,-2.561,-2.5767,-2.5809,-2.5823,-2.596,-2.5889,-2.5897,-2.5903,-2.5907,-2.6166,-2.6167,0,0,0,0,0,0,-2.5191,-2.5226,-2.5455,-2.5467,-2.5332,-2.5471,-2.5495,-2.5546,-2.5673,-2.5691,-2.5611,-2.5612,-2.5794,-2.5812,-2.583,-2.5929,-2.5899,-2.5907,-2.5913,-2.6164,-2.6166,-2.6167,0,0,0,0,0,0,-2.5184,-2.5211,-2.5448,-2.5348,-2.538,-2.5477,-2.5534,-2.555,-2.5592,-2.5694,-2.5712,-2.5635,-2.5794,-2.5817,-2.5912,-2.5937,-2.5911,-2.592,-2.6162,-2.6165,-2.6167,-2.6129,0,0,0,0,0,0,-2.5175,-2.5208,-2.5238,-2.5349,-2.5385,-2.5526,-2.5536,-2.5555,-2.5607,-2.5611,-2.5721,-2.5738,-2.5795,-2.5898,-2.5921,-2.5949,-2.5927,-2.616,-2.6163,-2.6166,-2.6128,-2.6129,-2.613,0,0,0,0,0,-2.5163,-2.522,-2.5239,-2.5266,-2.5425,-2.5527,-2.5548,-2.5611,-2.5609,-2.564,-2.5706,-2.5735,-2.5931,-2.5907,-2.5933,-2.5965,-2.6159,-2.6163,-2.6166,-2.6128,-2.6129,-2.613,0,0,0,0,0,0,-2.511,-2.5235,-2.5258,-2.5352,-2.5428,-2.5538,-2.5579,-2.561,-2.5689,-2.5689,-2.5765,-2.5789,-2.5878,-2.5931,-2.5902,-2.6047,-2.6047,-2.6055,-2.6009,-2.6011,-2.6012,-2.5997,-2.5934,0,0,0,0,0,-2.5109,-2.5181,-2.5287,-2.536,-2.5397,-2.5481,-2.5528,-2.557,-2.5652,-2.5685,-2.5758,-2.5836,-2.5916,-2.5967,-2.6046,-2.6137,-2.6162,-2.6171,-2.6173,-2.6173,-2.6179,-2.6232,-2.6237,-2.6178,-2.6178,-2.6178,0,0,-2.5108,-2.5185,-2.5226,-2.5351,-2.5415,-2.5488,-2.5508,-2.5585,-2.564,-2.5697,-2.579,-2.5846,-2.594,-2.6032,-2.6077,-2.608,-2.6201,-2.6177,-2.6177,-2.6183,-2.6236,-2.6241,-2.6246,-2.6181,-2.618,-2.618,0,0,-2.5143,-2.5209,-2.5276,-2.534,-2.5437,-2.5493,-2.5509,-2.5615,-2.5654,-2.5749,-2.5793,-2.586,-2.5996,-2.606,-2.611,-2.6171,-2.62,-2.6194,-2.62,-2.625,-2.6255,-2.6259,-2.628,-2.6287,-2.6201,-2.6201,-2.6201,0,-2.5129,-2.5241,-2.5307,-2.5382,-2.5435,-2.549,-2.5559,-2.5618,-2.5736,-2.5772,-2.5773,-2.5944,-2.6011,-2.6119,-2.6134,-2.6173,-2.6194,-2.6182,-2.6249,-2.6254,-2.6259,-2.628,-2.6288,-2.6199,-2.6199,-2.6199,-2.62,0,-2.5219,-2.5296,-2.5339,-2.5451,-2.551,-2.5581,-2.5658,-2.571,-2.5747,-2.5803,-2.5899,-2.5981,-2.6077,-2.6107,-2.6144,-2.6221,-2.622,-2.6234,-2.6235,-2.6262,-2.6283,-2.6291,-2.6197,-2.6198,-2.6198,-2.6198,0,0,-2.5226,-2.5373,-2.5388,-2.5439,-2.555,-2.5611,-2.5685,-2.5779,-2.5821,-2.5901,-2.5965,-2.6079,-2.6093,-2.615,-2.6195,-2.6239,-2.6281,-2.6248,-2.6251,-2.6251,-2.6371,-2.6358,-2.6367,-2.6302,-2.6303,-2.6305,-2.6363,0,-2.5275,-2.5409,-2.5471,-2.5578,-2.565,-2.5703,-2.5768,-2.5843,-2.5898,-2.5967,-2.6028,-2.6107,-2.6119,-2.6154,-2.62,-2.6266,-2.6306,-2.6263,-2.6362,-2.6365,-2.6336,-2.6378,-2.6366,-2.6416,-2.6371,-2.6373,-2.6374,0,-2.535,-2.5429,-2.5542,-2.5645,-2.5677,-2.5734,-2.5825,-2.5891,-2.5978,-2.6014,-2.6078,-2.6122,-2.6202,-2.6198,-2.631,-2.6279,-2.6324,-2.6362,-2.6366,-2.6377,-2.637,-2.6389,-2.6434,-2.6441,-2.6387,-2.6386,-2.6385,0,-2.5342,-2.5477,-2.5562,-2.5605,-2.5727,-2.5765,-2.5818,-2.5903,-2.5956,-2.6036,-2.6071,-2.6159,-2.6207,-2.6275,-2.6341,-2.6332,-2.6447,-2.6448,-2.6479,-2.6478,-2.65,-2.6498,-2.6552,-2.653,-2.653,-2.653,-2.653,0,-2.539,-2.5458,-2.5561,-2.5613,-2.569,-2.5761,-2.5836,-2.5893,-2.5968,-2.6033,-2.6085,-2.6145,-2.6229,-2.63,-2.6352,-2.6437,-2.6458,-2.649,-2.6503,-2.6485,-2.6481,-2.6515,-2.6513,-2.6532,-2.6531,-2.6531,-2.6531,0,-2.5395,-2.5466,-2.5563,-2.567,-2.5699,-2.5751,-2.5843,-2.5896,-2.5953,-2.6034,-2.6058,-2.6148,-2.6233,-2.6306,-2.642,-2.6455,-2.6542,-2.6558,-2.6512,-2.6519,-2.6546,-2.6542,-2.6623,-2.6637,-2.6606,-2.6606,-2.6606,0,-2.542,-2.5473,-2.5586,-2.5633,-2.5684,-2.5759,-2.5813,-2.5885,-2.5939,-2.6042,-2.6083,-2.6172,-2.6247,-2.6382,-2.6458,-2.6545,-2.6563,-2.6585,-2.6576,-2.6556,-2.6563,-2.6558,-2.6564,-2.6585,-2.6585,-2.6585,-2.6585,0,-2.5458,-2.5491,-2.5566,-2.5654,-2.5716,-2.5789,-2.5863,-2.5899,-2.5985,-2.6043,-2.6131,-2.6189,-2.6305,-2.6393,-2.6488,-2.6543,-2.6578,-2.6587,-2.6599,-2.6581,-2.6552,-2.6567,-2.6513,-2.6585,-2.6585,-2.6585,-2.6585,-2.6585,-2.5474,-2.5523,-2.561,-2.5692,-2.5756,-2.5824,-2.5879,-2.5943,-2.6017,-2.6116,-2.6155,-2.6244,-2.633,-2.6462,-2.6517,-2.6588,-2.6594,-2.661,-2.6615,-2.6618,-2.6615,-2.6541,-2.6606,-2.6606,-2.6606,-2.6606,-2.6606,0,-2.5514,-2.5572,-2.5647,-2.5749,-2.5814,-2.5841,-2.5925,-2.5977,-2.6055,-2.6132,-2.6205,-2.6306,-2.6392,-2.6474,-2.6565,-2.6606,-2.6625,-2.6627,-2.6624,-2.6637,-2.6605,-2.6586,-2.6611,-2.6611,-2.661,-2.661,-2.661,-2.661,-2.5542,-2.5627,-2.567,-2.5787,-2.5846,-2.5934,-2.5979,-2.6042,-2.6104,-2.6214,-2.6286,-2.6339,-2.6418,-2.6514,-2.6594,-2.6617,-2.6647,-2.6645,-2.6671,-2.664,-2.6639,-2.6637,-2.662,-2.6651,-2.6651,-2.6697,-2.6697,-2.6698]},{"header":{"parameterUnit":"m.s-1","parameterCategory":1,"la1":30.2991,"la2":30.254,"lo1":-89.0895,"lo2":-89.0444,"dy":0.0017,"dx":0.0017,"nx":28,"ny":28,"refTime":"2024-04-07T21:00:00:Z","depth":0,"parameterNumber":3,"parameterNumberName":"V-component_of_WINDS"},"data":[0,0,0,0,0,0,0,0,0,0,0,0,0,0,0,0,0,0,0,0,0,0,0,0,0,0,0,0,0,0,0,0,0,0,0,0,0,0,0,0,0,0,0,0,0,0,0,0,0,0,0,0,0,0,0,0,0,0,3.518,3.5181,0,3.5237,3.5238,3.5238,3.5229,3.5228,3.5227,3.5226,3.5287,3.5289,3.5292,0,0,0,0,0,0,0,0,0,0,0,0,0,3.5066,3.5068,3.518,3.5181,3.5181,3.5237,3.5238,3.5239,3.5229,3.5228,3.5227,3.5226,3.5286,3.5289,3.5292,0,0,0,0,0,0,0,0,0,0,0,0,0,3.5119,3.5069,3.518,3.5183,3.5184,3.5237,3.5238,3.5239,3.5229,3.5228,3.5226,3.5225,3.5285,3.5289,3.5292,3.5346,0,0,3.5304,3.5306,0,0,0,0,0,0,0,0,3.5116,3.5123,3.5182,3.5183,3.5184,3.5224,3.522,3.5275,3.523,3.5212,3.5226,3.5224,3.5267,3.5273,3.5287,3.5349,3.5351,3.5304,3.5307,3.5308,3.5309,0,0,0,0,0,0,0,3.5112,3.512,3.5203,3.5183,3.5184,3.5183,3.5189,3.523,3.5248,3.5214,3.5213,3.522,3.5268,3.5283,3.5288,3.5352,3.5304,3.5308,3.531,3.5312,3.5463,3.5465,0,0,0,0,0,0,3.5107,3.5117,3.5201,3.5204,3.5145,3.5186,3.5193,3.5213,3.5247,3.5251,3.5221,3.5219,3.5277,3.5284,3.529,3.5356,3.5308,3.5312,3.5314,3.5461,3.5463,3.5465,0,0,0,0,0,0,3.5105,3.5114,3.5199,3.5161,3.5171,3.519,3.5213,3.5215,3.523,3.5253,3.5256,3.5233,3.5276,3.5285,3.5332,3.5358,3.5314,3.5317,3.5459,3.5462,3.5464,3.5487,0,0,0,0,0,0,3.5101,3.5114,3.5133,3.5161,3.5173,3.5239,3.5214,3.5217,3.5236,3.5235,3.5265,3.5269,3.5276,3.5327,3.5336,3.5362,3.532,3.5457,3.5461,3.5464,3.5484,3.549,3.5495,0,0,0,0,0,3.5097,3.5138,3.5134,3.5144,3.5198,3.524,3.5247,3.5254,3.5239,3.5259,3.5274,3.5268,3.5354,3.5332,3.5342,3.537,3.5456,3.546,3.5463,3.5482,3.5489,3.5495,0,0,0,0,0,0,3.5113,3.5141,3.5138,3.5188,3.5212,3.5239,3.5265,3.5261,3.529,3.5288,3.5295,3.5302,3.5351,3.5365,3.534,3.5424,3.5403,3.5409,3.5413,3.542,3.5425,3.5421,3.5323,0,0,0,0,0,3.5122,3.5153,3.5177,3.5219,3.5231,3.5246,3.5264,3.5268,3.5293,3.5303,3.5321,3.5346,3.5379,3.54,3.5432,3.5486,3.5494,3.5511,3.5516,3.5521,3.5526,3.5557,3.5565,3.5478,3.5478,3.5478,0,0,3.5142,3.5161,3.518,3.5222,3.5241,3.5274,3.5254,3.529,3.5314,3.5308,3.5354,3.5369,3.5398,3.5449,3.5473,3.5463,3.5552,3.5526,3.5529,3.5532,3.5562,3.557,3.5577,3.5481,3.548,3.548,0,0,3.5194,3.5211,3.5249,3.5268,3.5296,3.5306,3.5315,3.5343,3.5352,3.5398,3.5395,3.5425,3.5481,3.5502,3.552,3.5582,3.5577,3.5592,3.5621,3.5651,3.5658,3.5664,3.5687,3.5694,3.5597,3.5597,3.5597,0,3.5215,3.5263,3.5269,3.5304,3.5324,3.532,3.5358,3.5377,3.5415,3.5429,3.5417,3.5488,3.5507,3.5564,3.5579,3.5594,3.5605,3.5588,3.5656,3.5662,3.5668,3.569,3.5698,3.5599,3.5599,3.5598,3.5598,0,3.5287,3.5321,3.5348,3.5384,3.5406,3.5443,3.5456,3.5479,3.548,3.5492,3.554,3.5563,3.5599,3.5613,3.5615,3.5671,3.5664,3.5654,3.5632,3.5678,3.5698,3.5707,3.5601,3.56,3.56,3.56,0,0,3.535,3.5389,3.5399,3.5415,3.5447,3.5474,3.5512,3.5546,3.5566,3.5593,3.5625,3.5673,3.5665,3.5685,3.569,3.5717,3.5765,3.5704,3.5704,3.5714,3.5829,3.5836,3.5845,3.5763,3.5764,3.5766,3.5826,0,3.5405,3.547,3.5477,3.5536,3.5568,3.5566,3.5599,3.5622,3.5635,3.5665,3.5679,3.5713,3.5699,3.5711,3.5737,3.5753,3.5788,3.5749,3.5794,3.5795,3.5786,3.5856,3.5863,3.592,3.5834,3.5836,3.5837,0,3.5478,3.5506,3.5568,3.5596,3.561,3.5639,3.5672,3.5701,3.5728,3.5735,3.5759,3.5761,3.5801,3.5778,3.5835,3.5808,3.5827,3.5838,3.5841,3.5845,3.5818,3.5862,3.5938,3.5946,3.5849,3.5848,3.5848,0,3.5518,3.5571,3.5615,3.563,3.5663,3.5684,3.5699,3.5725,3.5746,3.5776,3.579,3.5824,3.5843,3.587,3.5882,3.5864,3.5938,3.5916,3.5946,3.5946,3.5961,3.596,3.6041,3.5974,3.5973,3.5973,3.5973,0,3.5579,3.5617,3.5634,3.5661,3.5704,3.5712,3.5755,3.577,3.5793,3.5824,3.5825,3.5854,3.5867,3.5899,3.5908,3.5954,3.5963,3.5971,3.5973,3.597,3.597,3.5983,3.5979,3.5976,3.5975,3.5975,3.5974,0,3.563,3.5643,3.5691,3.5719,3.5727,3.5758,3.5782,3.5809,3.5822,3.5861,3.5871,3.5891,3.5928,3.5942,3.5988,3.5995,3.6048,3.6047,3.6038,3.6039,3.6068,3.6065,3.616,3.6174,3.6098,3.6098,3.6099,0,3.5668,3.5697,3.5728,3.5749,3.5764,3.5797,3.5819,3.5829,3.5851,3.5886,3.5909,3.5946,3.5976,3.6037,3.6056,3.6092,3.6092,3.6123,3.6097,3.6094,3.6093,3.6091,3.6094,3.6127,3.6128,3.6129,3.6129,0,3.5734,3.5739,3.5769,3.5802,3.5827,3.5854,3.588,3.5897,3.5912,3.5937,3.5975,3.5999,3.6046,3.6083,3.612,3.6137,3.6136,3.6137,3.6146,3.6144,3.6138,3.6142,3.6051,3.6135,3.6134,3.6134,3.6134,3.6133,3.5781,3.5807,3.5832,3.5866,3.5887,3.5911,3.5938,3.5954,3.5986,3.6024,3.6029,3.607,3.6098,3.6148,3.6167,3.62,3.6192,3.6204,3.6208,3.6211,3.6213,3.6133,3.6207,3.6206,3.6206,3.6206,3.6206,0,3.5847,3.5864,3.5895,3.5931,3.5958,3.5954,3.5983,3.6006,3.6042,3.6068,3.6098,3.6142,3.6179,3.6202,3.6239,3.6261,3.6262,3.6271,3.6269,3.6273,3.6218,3.6206,3.627,3.627,3.627,3.627,3.627,3.627,3.5885,3.5928,3.5937,3.5992,3.6009,3.6048,3.6065,3.6088,3.6109,3.6158,3.6189,3.6203,3.6228,3.6267,3.6301,3.6307,3.6321,3.6331,3.6336,3.6284,3.6277,3.6271,3.626,3.6334,3.6334,3.6389,3.6389,3.639]}]]